Total_Precipitation_Accumulation
1.06 1.05 1.01 1.10 1.08 1.07 1.13 1.12 0.99 1.01 0.98 0.87 0.84 0.85 0.91 0.92 1.10 1.24 1.55 2.12 2.83 3.48 3.63 3.33 2.86 2.58 2.47 2.40 2.31 2.28 2.22 2.24 2.40 2.58 2.48 2.40 2.48 2.50 2.44 2.73 2.98 3.31 3.46
0.89 1.02 1.05 1.14 1.06 1.09 1.17 1.07 1.03 1.05 1.05 0.94 0.88 0.90 0.89 0.94 1.04 1.18 1.34 1.69 2.12 2.79 3.46 3.63 3.27 2.91 2.64 2.60 2.62 2.66 2.44 2.29 2.30 2.50 2.54 2.38 2.36 2.30 2.29 2.49 2.80 3.06 3.49
0.89 1.00 1.08 1.10 1.10 1.10 1.10 1.13 1.16 1.12 1.03 0.96 0.98 0.95 0.91 0.92 1.08 1.20 1.26 1.46 1.54 1.71 2.45 3.23 3.52 3.37 3.11 3.09 3.04 2.89 2.69 2.50 2.33 2.37 2.47 2.37 2.30 2.12 2.20 2.29 2.40 2.54 3.07
0.93 1.16 1.20 1.09 1.14 1.24 1.26 1.30 1.27 1.20 1.14 1.13 1.16 1.11 1.04 1.06 1.20 1.28 1.23 1.23 1.29 1.24 1.52 2.04 2.54 2.94 3.26 3.40 3.38 3.19 2.96 2.75 2.41 2.34 2.35 2.31 2.19 2.00 2.05 2.17 2.22 2.35 2.59
1.11 1.32 1.41 1.27 1.25 1.40 1.38 1.28 1.33 1.39 1.38 1.41 1.31 1.31 1.28 1.29 1.28 1.22 1.19 1.25 1.30 1.32 1.41 1.39 1.65 2.03 2.71 3.26 3.57 3.76 3.39 3.10 2.75 2.52 2.45 2.27 2.11 1.99 1.97 2.02 2.07 2.21 2.31
1.32 1.51 1.66 1.60 1.52 1.66 1.69 1.56 1.68 1.78 1.70 1.76 1.60 1.50 1.44 1.42 1.36 1.34 1.32 1.38 1.49 1.41 1.47 1.44 1.44 1.29 1.71 2.44 3.11 3.61 3.64 3.45 3.14 2.75 2.58 2.22 2.11 1.99 1.90 1.90 1.96 2.11 2.24
1.73 1.87 1.86 2.08 2.13 2.11 2.16 2.12 2.28 2.34 2.09 1.95 2.32 2.25 1.82 1.48 1.34 1.42 1.51 1.57 1.68 1.71 1.69 1.68 1.64 1.40 1.32 1.64 2.30 3.24 3.49 3.39 3.19 2.91 2.80 2.52 2.21 2.00 1.92 1.92 1.97 1.96 2.10
2.10 2.02 2.12 2.37 2.40 2.51 2.60 2.46 2.65 2.79 2.47 2.18 2.67 3.17 2.75 2.24 1.57 1.32 1.43 1.59 1.79 1.83 1.78 1.66 1.67 1.63 1.55 1.62 1.76 2.44 3.05 3.39 3.33 3.16 3.01 2.90 2.43 2.17 2.00 1.96 1.98 1.97 1.95
2.52 2.40 2.37 2.53 2.57 2.65 2.84 2.86 2.83 3.01 2.97 2.62 2.58 3.18 3.19 2.80 2.33 1.73 1.54 1.61 1.80 1.91 1.95 1.90 1.74 1.76 1.67 1.75 1.87 1.77 2.05 2.71 3.22 3.20 3.08 3.01 2.74 2.41 2.11 2.04 2.04 1.97 1.82
2.67 2.60 2.56 2.66 2.69 2.68 2.78 2.83 2.82 3.14 3.40 3.20 2.88 2.63 2.58 2.61 2.67 2.32 1.89 1.72 1.82 1.91 2.04 1.95 1.98 2.05 2.01 1.97 1.96 1.71 1.58 1.81 2.39 2.86 2.99 3.06 2.90 2.62 2.32 2.22 2.24 2.09 1.97
2.49 2.36 2.44 2.60 2.63 2.65 2.66 2.83 2.95 3.24 3.30 3.25 3.16 3.01 2.80 2.61 2.22 2.31 2.29 2.05 1.98 1.87 1.96 2.12 2.20 2.25 2.19 2.32 2.41 1.90 1.53 1.47 1.83 2.34 2.79 3.01 3.10 3.04 2.76 2.49 2.36 2.32 2.28
2.43 2.24 2.29 2.36 2.45 2.52 2.49 2.54 2.73 2.93 3.18 3.33 3.26 3.10 3.07 3.00 2.78 2.56 2.25 2.13 2.26 2.12 1.96 1.96 2.05 2.13 2.28 2.41 2.31 2.09 1.60 1.43 1.56 1.73 2.07 2.55 2.94 3.18 3.11 2.96 2.77 2.61 2.60
2.39 2.35 2.25 2.25 2.28 2.33 2.42 2.62 2.64 2.71 2.91 3.11 3.14 3.07 3.07 2.92 2.85 2.84 2.56 2.20 2.14 2.07 1.99 1.94 1.92 1.99 2.06 2.17 2.19 2.11 1.68 1.56 1.47 1.43 1.47 1.64 2.08 2.60 3.02 3.23 3.19 2.97 2.97
1.96 1.95 2.00 2.09 2.18 2.23 2.31 2.47 2.56 2.59 2.65 2.71 2.73 2.93 3.04 2.92 2.72 2.64 2.64 2.69 2.41 2.18 2.01 1.93 1.88 1.86 1.92 1.92 2.04 2.05 1.60 1.50 1.41 1.32 1.26 1.17 1.31 1.65 2.15 2.55 2.68 2.77 3.01
1.54 1.56 1.59 1.75 1.94 2.05 2.09 2.21 2.38 2.38 2.47 2.49 2.56 2.63 2.65 2.73 2.60 2.41 2.38 2.50 2.63 2.41 2.23 2.04 1.86 1.68 1.73 1.71 1.80 1.56 1.48 1.48 1.42 1.30 1.18 1.07 1.02 1.14 1.44 1.81 1.98 1.93 2.00
1.47 1.53 1.55 1.57 1.68 1.77 1.86 2.01 2.13 2.21 2.27 2.25 2.25 2.33 2.38 2.43 2.44 2.38 2.35 2.39 2.42 2.40 2.28 2.04 1.75 1.51 1.56 1.63 1.80 1.53 1.57 1.75 1.61 1.40 1.15 1.09 1.05 1.02 1.10 1.24 1.36 1.30 1.25
1.51 1.53 1.56 1.59 1.60 1.67 1.72 1.80 1.91 2.05 2.05 2.06 1.94 1.97 2.12 2.21 2.41 2.44 2.39 2.34 2.33 2.27 2.15 2.03 1.78 1.57 1.54 1.64 1.73 1.60 1.62 1.67 1.56 1.47 1.25 1.14 1.03 1.08 1.10 1.13 1.21 1.15 1.01
1.37 1.41 1.52 1.47 1.46 1.51 1.59 1.71 1.79 1.82 1.87 1.82 1.72 1.75 1.87 1.95 2.11 2.23 2.34 2.23 2.23 2.21 2.20 2.15 1.93 1.72 1.64 1.65 1.74 1.69 1.57 1.55 1.56 1.61 1.40 1.27 1.15 1.07 1.13 1.11 1.21 1.26 1.17
1.33 1.40 1.51 1.59 1.49 1.39 1.48 1.56 1.63 1.63 1.61 1.53 1.51 1.57 1.64 1.72 1.83 1.94 2.04 2.12 2.14 2.10 2.19 2.17 1.97 1.79 1.64 1.60 1.65 1.60 1.55 1.61 1.52 1.62 1.54 1.40 1.33 1.21 1.17 1.15 1.14 1.24 1.25
1.19 1.22 1.35 1.45 1.47 1.41 1.36 1.35 1.36 1.51 1.50 1.40 1.29 1.28 1.31 1.35 1.47 1.61 1.72 1.87 2.02 2.14 2.20 2.23 2.08 1.85 1.66 1.61 1.69 1.74 1.72 1.62 1.61 1.52 1.55 1.52 1.50 1.43 1.29 1.25 1.14 1.13 1.21
1.04 1.09 1.25 1.40 1.46 1.44 1.44 1.42 1.33 1.36 1.42 1.43 1.37 1.25 1.13 1.14 1.28 1.37 1.43 1.68 1.88 2.04 2.15 2.19 2.10 1.92 1.76 1.68 1.65 1.66 1.73 1.80 1.80 1.64 1.58 1.50 1.45 1.30 1.16 1.16 1.13 1.07 1.04
0.95 0.96 1.05 1.19 1.33 1.31 1.50 1.55 1.44 1.30 1.30 1.31 1.32 1.31 1.30 1.24 1.12 1.09 1.16 1.33 1.57 1.76 1.91 2.01 2.02 1.85 1.66 1.64 1.70 1.74 1.74 1.79 1.83 1.70 1.64 1.69 1.63 1.48 1.31 1.16 1.20 1.11 1.04
0.92 0.92 1.00 1.14 1.28 1.47 1.55 1.37 1.44 1.38 1.31 1.32 1.28 1.28 1.30 1.27 1.32 1.17 1.13 1.14 1.15 1.33 1.57 1.77 1.78 1.69 1.74 1.67 1.66 1.63 1.63 1.61 1.63 1.67 1.68 1.70 1.67 1.55 1.36 1.28 1.32 1.23 1.16
0.92 0.95 1.02 1.10 1.19 1.42 1.51 1.32 1.51 1.52 1.49 1.43 1.38 1.40 1.44 1.45 1.37 1.48 1.43 1.31 1.19 1.17 1.29 1.22 1.28 1.57 1.71 1.76 1.77 1.77 1.81 1.71 1.63 1.64 1.58 1.60 1.51 1.44 1.31 1.23 1.28 1.19 1.11
0.93 0.95 0.94 0.96 0.98 1.10 1.26 1.19 1.34 1.45 1.54 1.53 1.42 1.38 1.41 1.40 1.62 1.71 1.55 1.47 1.35 1.27 1.46 1.49 1.48 1.55 1.65 1.66 1.64 1.69 1.75 1.71 1.63 1.57 1.47 1.38 1.31 1.38 1.42 1.32 1.26 1.31 1.24
0.97 0.90 0.87 0.85 0.87 0.91 1.12 1.02 1.14 1.21 1.36 1.51 1.49 1.43 1.59 1.50 1.53 1.51 1.38 1.54 1.48 1.34 1.27 1.25 1.24 1.30 1.33 1.40 1.47 1.44 1.56 1.60 1.53 1.55 1.42 1.36 1.31 1.38 1.43 1.33 1.19 1.16 1.21